Peru, IN

2:10 AM EST on January 23, 2018 (GMT -0500)
Grissom Air Reserve Base

Weather History for KGUS - October, 2013

Change the Weather History Date:

Saturday, October 26, 2013

  Actual Average Record
Temperature  
Mean Temperature 45 °F -  
Max Temperature 56 °F 57 °F 77 °F (2000)
Min Temperature 36 °F 40 °F 30 °F (2017)
Degree Days  
Heating Degree Days 20    
Moisture  
Dew Point 32 °F    
Average Humidity 62    
Maximum Humidity 78    
Minimum Humidity 45    
Precipitation  
Precipitation 0.00 in - - ()
Sea Level Pressure  
Sea Level Pressure 30.02 in    
Wind  
Wind Speed 16 mph (WSW)    
Max Wind Speed 24 mph    
Max Gust Speed 33 mph    
Visibility 10 miles    
Events      
Averages and records for this station are not official NWS values.
T = Trace of Precipitation, MM = Missing Value Source: NWS Daily Summary

Daily Weather History Graph

Daily Weather History Graph

Search for Another Location

Airport or City:

Trip Planner

Search our weather history database for the weather conditions in past years. The results will help you decide how hot, cold, wet, or windy it might be!

Date:

Astronomy

Oct. 26, 2013 Rise Set
Actual Time 8:08 AM EDT 6:48 PM EDT
Civil Twilight 7:40 AM EDT 7:16 PM EDT
Nautical Twilight 7:08 AM EDT 7:48 PM EDT
Astronomical Twilight 6:36 AM EDT 8:20 PM EDT
Moon 12:08 AM EDT (10/26) 2:24 PM EDT (10/26)
Length of Visible Light 11h 36m
Length of Day
10h 40m
Waning Gibbous, 53% of the Moon is Illuminated
Oct 26
Waning Gibbous
Oct 26
Last Quarter
Nov 3
New
Nov 10
First Quarter
Nov 17
Full

Hourly Weather History & Observations

Time (EDT) Temp. Windchill Dew Point Humidity Pressure Visibility Wind Dir Wind Speed Gust Speed Precip Events Conditions
12:58 AM 37.4 °F 28.5 °F 27.3 °F 67% 30.20 in 10.0 mi SW 15.0 mph - N/A   Clear
1:58 AM 37.0 °F 27.7 °F 27.1 °F 67% 30.19 in 10.0 mi SW 16.1 mph - N/A   Clear
2:58 AM 36.7 °F 28.4 °F 26.8 °F 67% 30.16 in 10.0 mi SSW 12.7 mph - N/A   Clear
3:58 AM 36.9 °F 27.8 °F 27.0 °F 67% 30.14 in 10.0 mi SSW 15.0 mph - N/A   Mostly Cloudy
4:58 AM 37.9 °F 28.9 °F 27.0 °F 65% 30.11 in 10.0 mi SW 16.1 mph - N/A   Overcast
5:58 AM 37.9 °F 27.3 °F 27.3 °F 66% 30.08 in 10.0 mi SW 21.9 mph 27.6 mph N/A   Mostly Cloudy
6:58 AM 37.9 °F 28.9 °F 27.7 °F 67% 30.06 in 10.0 mi SW 16.1 mph - N/A   Overcast
7:58 AM 39.7 °F 29.7 °F 28.2 °F 63% 30.02 in 10.0 mi SW 21.9 mph 27.6 mph N/A   Overcast
8:58 AM 40.5 °F 30.2 °F 28.9 °F 64% 29.99 in 10.0 mi SW 24.2 mph 31.1 mph N/A   Overcast
9:58 AM 41.7 °F 32.3 °F 29.8 °F 63% 29.98 in 10.0 mi SW 21.9 mph 27.6 mph N/A   Overcast
10:31 AM 42.8 °F 34.5 °F 32.0 °F 66% 29.94 in 10.0 mi SW 18.4 mph - N/A   Overcast
10:58 AM 43.5 °F 35.5 °F 31.5 °F 63% 29.97 in 10.0 mi SW 18.4 mph 27.6 mph N/A   Overcast
11:58 AM 45.1 °F 36.9 °F 32.9 °F 62% 29.95 in 10.0 mi SW 21.9 mph 29.9 mph N/A   Mostly Cloudy
12:58 PM 48.4 °F - 34.3 °F 58% 29.94 in 10.0 mi WSW 23.0 mph 33.4 mph N/A   Mostly Cloudy
1:58 PM 52.0 °F - 36.9 °F 56% 29.90 in 10.0 mi West 23.0 mph 31.1 mph N/A   Scattered Clouds
2:58 PM 52.5 °F - 37.9 °F 58% 29.90 in 10.0 mi WSW 19.6 mph 28.8 mph N/A   Mostly Cloudy
3:58 PM 54.9 °F - 39.0 °F 55% 29.90 in 10.0 mi West 23.0 mph 31.1 mph N/A   Mostly Cloudy
4:58 PM 54.9 °F - 33.6 °F 45% 29.92 in 10.0 mi West 18.4 mph 26.5 mph N/A   Scattered Clouds
5:58 PM 53.1 °F - 33.3 °F 47% 29.95 in 10.0 mi WNW 15.0 mph - N/A   Mostly Cloudy
6:58 PM 50.5 °F - 32.0 °F 49% 29.98 in 10.0 mi WNW 13.8 mph - N/A   Scattered Clouds
7:58 PM 50.0 °F - 34.2 °F 55% 30.02 in 10.0 mi NNW 11.5 mph - N/A   Overcast
8:58 PM 46.4 °F 43.5 °F 34.5 °F 63% 30.05 in 10.0 mi NW 5.8 mph - N/A   Scattered Clouds
9:58 PM 43.7 °F 41.1 °F 33.6 °F 68% 30.06 in 10.0 mi WNW 4.6 mph - N/A   Clear
10:58 PM 38.8 °F 35.4 °F 32.4 °F 78% 30.09 in 10.0 mi NW 4.6 mph - N/A   Clear
11:58 PM 40.5 °F 37.3 °F 33.3 °F 75% 30.10 in 10.0 mi WNW 4.6 mph - N/A   Clear